TimeAKDT,TemperatureF,Dew PointF,Humidity,Sea Level PressureIn,VisibilityMPH,Wind Direction,Wind SpeedMPH,Gust SpeedMPH,PrecipitationIn,Events,Conditions,WindDirDegrees,DateUTC
12:53 AM,37.0,35.1,93,30.28,10.0,ENE,4.6,-,N/A,,Clear,70,2012-10-07 08:53:00
1:53 AM,37.0,36.0,96,30.28,10.0,East,4.6,-,N/A,,Clear,80,2012-10-07 09:53:00
2:53 AM,37.9,36.0,93,30.28,10.0,East,3.5,-,N/A,,Scattered Clouds,90,2012-10-07 10:53:00
3:53 AM,39.0,36.0,89,30.28,10.0,East,4.6,-,N/A,,Partly Cloudy,80,2012-10-07 11:53:00
4:53 AM,37.9,36.0,93,30.26,10.0,East,5.8,-,N/A,,Clear,80,2012-10-07 12:53:00
5:53 AM,39.0,36.0,89,30.25,10.0,East,6.9,-,N/A,,Partly Cloudy,90,2012-10-07 13:53:00
6:53 AM,39.0,36.0,89,30.24,10.0,East,5.8,-,N/A,,Clear,80,2012-10-07 14:53:00
7:53 AM,39.0,36.0,89,30.25,10.0,East,5.8,-,N/A,,Clear,80,2012-10-07 15:53:00
8:53 AM,39.0,36.0,89,30.26,10.0,East,3.5,-,N/A,,Mostly Cloudy,80,2012-10-07 16:53:00
9:53 AM,39.9,36.0,86,30.27,10.0,East,6.9,-,N/A,,Overcast,100,2012-10-07 17:53:00
10:53 AM,39.9,37.0,89,30.27,10.0,East,6.9,-,N/A,,Overcast,90,2012-10-07 18:53:00
11:18 AM,39.2,37.4,93,30.24,10.0,East,8.1,-,N/A,,Overcast,80,2012-10-07 19:18:00
11:53 AM,41.0,37.9,89,30.27,10.0,ENE,8.1,-,N/A,,Overcast,70,2012-10-07 19:53:00
12:53 PM,42.1,37.9,85,30.26,10.0,East,4.6,-,N/A,,Overcast,90,2012-10-07 20:53:00
1:53 PM,43.0,37.9,82,30.25,10.0,East,3.5,-,N/A,,Overcast,80,2012-10-07 21:53:00
2:53 PM,45.0,37.9,76,30.24,10.0,East,3.5,-,N/A,,Mostly Cloudy,90,2012-10-07 22:53:00
3:53 PM,45.0,37.9,76,30.25,10.0,Calm,Calm,-,N/A,,Overcast,0,2012-10-07 23:53:00
4:53 PM,44.1,39.0,82,30.23,10.0,ESE,3.5,-,N/A,,Overcast,120,2012-10-08 00:53:00
5:53 PM,43.0,39.9,89,30.23,7.0,Calm,Calm,-,0.01,Rain,Light Rain,0,2012-10-08 01:53:00
6:19 PM,42.8,39.2,87,30.21,7.0,Calm,Calm,-,0.02,Rain,Light Rain,0,2012-10-08 02:19:00
6:53 PM,42.1,39.9,92,30.23,7.0,Calm,Calm,-,0.03,Rain,Light Rain,0,2012-10-08 02:53:00
7:53 PM,41.0,39.9,96,30.23,8.0,Calm,Calm,-,0.03,Rain,Light Rain,0,2012-10-08 03:53:00
8:53 PM,41.0,39.9,96,30.22,8.0,Calm,Calm,-,0.02,Rain,Light Rain,0,2012-10-08 04:53:00
9:53 PM,41.0,39.9,96,30.21,8.0,ENE,3.5,-,0.01,Rain,Light Rain,70,2012-10-08 05:53:00
10:53 PM,41.0,39.0,93,30.20,9.0,ENE,3.5,-,0.02,Rain,Light Rain,70,2012-10-08 06:53:00
11:53 PM,41.0,39.0,93,30.20,10.0,Calm,Calm,-,0.01,Rain,Light Rain,0,2012-10-08 07:53:00